Regional Weather Roundup
Issued by NWS Green Bay, WI

Home | Current Version | Previous Version | Text Only | Print | Product List | Glossary On
Versions: 1 2 3 4 5 6 7 8 9 10 11 12 13 14 15 16 17 18 19 20 21 22 23 24 25 26 27 28 29 30 31 32 33 34 35 36 37 38 39 40 41 42 43 44 45 46 47 48 49 50
000
ASUS43 KGRB 020359
RWRGRB

NORTH-CENTRAL AND NORTHEAST WISCONSIN REGIONAL WEATHER ROUNDUP
NATIONAL WEATHER SERVICE GREEN BAY WI
1100 PM CDT MON SEP 01 2014

WIZ005-009-010>012-018-019-020500-
NORTH CENTRAL WISCONSIN

CITY           SKY/WX    TMP DP  RH WIND       PRES   REMARKS
IRONWOOD       NOT AVBL
MANITOWISH WTR NOT AVBL
ARBOR VITAE    NOT AVBL
EAGLE RIVER    NOT AVBL
LAND O LAKES   NOT AVBL
RHINELANDER    CLEAR     55  53  93 W5        29.80S
PHILLIPS       NOT AVBL
ANTIGO         NOT AVBL
TOMAHAWK       NOT AVBL
MERRILL        NOT AVBL
$$

WIZ013-073-020500-
NORTHEAST WISCONSIN

CITY           SKY/WX    TMP DP  RH WIND       PRES   REMARKS
IRON MOUNTAIN  FOG       57  55  93 CALM      29.75R VSB 1
MARINETTE      CLEAR     63  57  82 W3        29.75R
$$

WIZ017-030-035>037-045-020500-
CENTRAL WISCONSIN

CITY           SKY/WX    TMP DP  RH WIND       PRES   REMARKS
MEDFORD        NOT AVBL
WAUSAU         CLEAR     62  57  83 NW7       29.79S
MOSINEE        NOT AVBL
MARSHFIELD     CLEAR     60  56  86 W6        29.80S
WISC RAPIDS    CLEAR     59  57  93 CALM      29.81S
STEVENS POINT  NOT AVBL
WAUPACA        NOT AVBL
SHAWANO        CLEAR     64  58  82 CALM      29.78S
CLINTONVILLE   NOT AVBL
$$

WIZ038-039-048-051-020500-
FOX VALLEY

CITY           SKY/WX    TMP DP  RH WIND       PRES   REMARKS
NWS GREEN BAY  CLEAR     63  60  90 SW5       29.78R
APPLETON       CLEAR     63  61  94 CALM      29.80R
OSHKOSH        CLEAR     65  63  93 SW3       29.80R
FOND DU LAC    CLEAR     63  60  90 SW5       29.82R
$$

WIZ022-050-052-020500-
EAST CENTRAL WISCONSIN

CITY           SKY/WX    TMP DP  RH WIND       PRES   REMARKS
STURGEON BAY   CLEAR     66  59  77 W6        29.77R
MANITOWOC      NOT AVBL
SHEBOYGAN      CLEAR     62  60  93 SW6       29.81R
$$

LMZ563-521-522-541>543-020500-
LAKESHORE

STATION/POSITION TIME  TEMP    WIND        PRES    VSBY  WAVE
                       AIR SEA DIR/SP/G                  HT/PER
                 (UTC) (F)     (DEG/KT/KT) (MB)    (MI)  (FT/S)
SHEBOYGAN LKSHOR 0300   67 53  240/  8/  9 1008.8R
KEWAUNEE LKSHORE 0300   66     290/  3/  5 1007.3R
NORTHPORT PIER   0300   65     250/  2/  3 1006.8S
N MID LAKE BUOY  0300   66 64  240/  4/  6 1006.7R         2/ 6
S GREEN BAY BUOY 0300   70     VRB 10/ 12  1008.9R
CHAMBERS ISLAND  0300   68     220/  4/  9 1007.1R
MENOMINEE LKSHOR 0300   67     250/  6/  8 1008.3R
$$


USA.gov is the U.S. government's official web portal to all federal, state and local government web resources and services.